Regional Weather Roundup
Issued by NWS

Home | Current Version | Previous Version | Graphics & Text | Print | Product List | Glossary On
Versions: 1 2 3 4 5 6 7 8 9 10 11 12 13 14 15 16 17 18 19 20 21 22 23 24 25 26 27 28 29 30 31 32 33 34 35 36 37 38 39 40 41 42 43 44 45 46 47 48 49 50
000
ASUS43 KIND 291309
RWRIN

WEATHER ROUNDUP FOR INDIANA
NATIONAL WEATHER SERVICE INDIANAPOLIS IN
900 AM EDT SAT AUG 29 2015

NOTE: "FAIR" INDICATES FEW OR NO CLOUDS BELOW 12,000 FEET WITH NO
SIGNIFICANT WEATHER AND/OR OBSTRUCTIONS TO VISIBILITY.

* - STATION DOES NOT REPORT WEATHER SUCH AS PRECIPITATION OR FOG.

+ - STATION NOT QUALITY CONTROLLED BY THE NATIONAL WEATHER SERVICE.
    USE DATA WITH CAUTION...ESPECIALLY DEWPOINT AND RELATIVE
    HUMIDITY OBSERVATIONS.

INZ001>003-010>013-019-020-291400-
NORTHWEST INDIANA

CITY           SKY/WX    TMP DP  RH WIND       PRES   REMARKS
GARY /AIRPORT/ RAIN      64  61  88 SE6       30.07R
KNOX *+        PTSUNNY   64  61  88 SE3       30.08S
LA PORTE +     LGT RAIN  65  65 100 E3        30.10R
MICHIGAN CITY+ LGT RAIN  64  57  77 SE3       30.08S
MONTICELLO +   PTSUNNY   67  63  84 SE3       30.07S
RENSSELAER +   LGT RAIN  64  63  94 SE3       30.07S
VALPARAISO     CLOUDY    64  61  90 NE5       30.08S

$$

LMZ046-743>745-291400-
SOUTHERN LAKE MICHIGAN

STATION/POSITION TIME  TEMP    WIND        PRES    WAVE
                       AIR SEA DIR/SP/G            HT
                 (UTC) (F)     (DEG/KT/KT) (MB)    (FT)
MICHIGAN CITY    1200   66     130/ 10/ 12   N/A
5NW MICH CITY    1300   66 70  170/ 10/ 12   N/A     1

$$

INZ004-005-014>016-021>024-291400-
NORTH CENTRAL INDIANA

CITY           SKY/WX    TMP DP  RH WIND       PRES   REMARKS
ELKHART        CLOUDY    64  59  82 CALM      30.12R
GOSHEN         PTSUNNY   65  59  81 E5        30.11R
LOGANSPORT +   CLOUDY    64  57  77 SE3       30.09S
PERU/GRISSOM   CLOUDY    67  61  80 S6        30.08S
ROCHESTER +    CLOUDY    68  63  83 CALM      30.09F
SOUTH BEND     CLOUDY    66  59  78 SE3       30.10S
WARSAW +       CLOUDY    66  59  77 CALM      30.10F

$$

INZ006>009-017-018-025>027-291400-
NORTHEAST INDIANA

CITY           SKY/WX    TMP DP  RH WIND       PRES   REMARKS
ANGOLA *+      MOSUNNY   64  55  72 CALM      30.13S
AUBURN +       CLOUDY    63  59  88 CALM      30.13S
FORT WAYNE     CLOUDY    65  60  84 E3        30.12S
HUNTINGTON +   CLOUDY    64  58  81 CALM      30.11S

$$

INZ028-029-035-036-043>045-051>053-291400-
WEST CENTRAL INDIANA

CITY           SKY/WX    TMP DP  RH WIND       PRES   REMARKS
CRAWFORDSVL +  PTSUNNY   67  60  76 S5        30.09R
GREENCASTLE +  PTSUNNY   64  59  82 CALM      30.10S
LAFAYETTE      PTSUNNY   67  61  81 S3        30.07S
TERRE HAUTE    PTSUNNY   69  63  81 S3        30.08R

$$

INZ030>032-037>040-046>048-054>057-064-065-291400-
CENTRAL INDIANA

CITY           SKY/WX    TMP DP  RH WIND       PRES   REMARKS
ANDERSON       SUNNY     68  57  68 S7        30.12
COLUMBUS       MOSUNNY   68  63  83 CALM      30.12S
FRANKFORT +    PTSUNNY   68  68 100 SE3       30.10S
GREENWOOD *+   CLOUDY    68  59  73 S6        30.11S
INDIANAPOLIS   CLOUDY    68  61  78 S7        30.08S
-EAGLE CREEK   PTSUNNY   69  61  75 VRB5      30.10R
KOKOMO *+      CLOUDY    68  55  64 S7        30.10S
MARION +       CLOUDY    66  55  65 S6        30.11S
MT COMFORT *+  CLOUDY    68  63  83 S7        30.11S
SHELBYVILLE    CLOUDY    71  62  73 S8        30.11R
ZIONSVILLE +   PTSUNNY   69  61  75 S6        30.11S

$$

INZ033-034-041-042-049-050-058-059-291400-
EAST CENTRAL INDIANA

CITY           SKY/WX    TMP DP  RH WIND       PRES   REMARKS
MUNCIE         MOSUNNY   68  60  75 S12G17    30.11S

$$

INZ060-061-067>069-081>083-085>088-291400-
SOUTHWEST INDIANA

CITY           SKY/WX    TMP DP  RH WIND       PRES   REMARKS
EVANSVILLE     PTSUNNY   71  66  84 CALM      30.10S HAZE
HUNTINGBURG *+ PTSUNNY   72  64  78 S6        30.11S
WASHINGTON +   CLOUDY    69  64  83 S8        30.09R

$$

INZ062-063-066-070>080-084-089>092-291400-
SOUTH CENTRAL AND SOUTHEAST INDIANA

CITY           SKY/WX    TMP DP  RH WIND       PRES   REMARKS
BLOOMINGTON    CLOUDY    67  62  84 SE5       30.11R
MADISON *+     PTSUNNY   70  64  83 S5        30.16S
NORTH VERNON + CLOUDY    72  66  83 CALM      30.14R
SEYMOUR +      CLOUDY    72  64  78 S6        30.12S

$$



USA.gov is the U.S. government's official web portal to all federal, state and local government web resources and services.